Terminal Aerodrome Forecast
Issued by NWS

Current Version | Previous Version | Graphics & Text | Print | Product List | Glossary On
Versions: 1 2 3 4 5 6 7 8 9 10 11 12 13 14 15 16 17
000
FTUS41 KPBZ 252320
TAFMGW
TAF
KMGW 252320Z 2600/2624 21005KT P6SM SCT100
     FM261000 18004KT P6SM VCSH BKN035
     FM261800 20006KT P6SM VCTS BKN040CB=

USA.gov is the U.S. government's official web portal to all federal, state and local government web resources and services.